Weather History for MMPB - October, 2012

Change the Weather History Date:

Thursday, October 25, 2012

  Actual Average Record
Temperature  
Mean Temperature 58 °F -  
Max Temperature 77 °F 69 °F 78 °F (2010)
Min Temperature 39 °F 46 °F 33 °F (2011)
Degree Days  
Heating Degree Days 7    
Growing Degree Days 8 (Base 50)    
Moisture  
Dew Point 41 °F    
Average Humidity 52    
Maximum Humidity 93    
Minimum Humidity 14    
Precipitation  
Precipitation 0.00 in - - ()
Sea Level Pressure  
Sea Level Pressure 30.12 in    
Wind  
Wind Speed 4 mph ()    
Max Wind Speed 17 mph    
Max Gust Speed -    
Visibility 9.4 miles    
Events      
Averages and records for this station are not official NWS values.
T = Trace of Precipitation, MM = Missing Value Source: Averaged Metar Reports

Daily Weather History Graph

Daily Weather History Graph

Search for Another Location

Airport or City:

Trip Planner

Search our weather history database for the weather conditions in past years. The results will help you decide how hot, cold, wet, or windy it might be!

Date:

Astronomy

Oct. 25, 2012 Rise Set
Actual Time 7:31 AM CDT 7:03 PM CDT
Civil Twilight 7:08 AM CDT 7:25 PM CDT
Nautical Twilight 6:43 AM CDT 7:51 PM CDT
Astronomical Twilight 6:17 AM CDT 8:17 PM CDT
Moon 4:25 PM CDT (10/25) 3:58 AM CDT (10/25)
Length of Visible Light 12h 16m
Length of Day
11h 32m
Waxing Gibbous, 84% of the Moon is Illuminated
Oct 25
Waxing Gibbous
Oct 29
Full
Nov 6
Last Quarter
Nov 13
New
Nov 20
First Quarter

Hourly Weather History & Observations

Time (CDT) Temp. Windchill Dew Point Humidity Pressure Visibility Wind Dir Wind Speed Gust Speed Precip Events Conditions
1:40 AM 46.4 °F 44.3 °F 41.0 °F 81% 30.27 in 10.0 mi North 4.6 mph - N/A   Clear
6:34 AM 39.2 °F 35.9 °F 35.6 °F 87% 30.25 in 10.0 mi NW 4.6 mph - N/A   Clear
6:45 AM 47 °F - 42 °F 75% 29.85 in 3 mi Calm Calm - -  
6:54 AM 39.2 °F 37.0 °F 35.6 °F 87% 30.25 in 10.0 mi NNW 3.5 mph - N/A   Clear
7:53 AM 39.2 °F 35.0 °F 37.4 °F 93% 30.26 in 10.0 mi North 5.8 mph - N/A   Clear
8:47 AM 46.4 °F 41.9 °F 39.2 °F 76% 30.27 in 10.0 mi NNW 9.2 mph - N/A   Clear
9:47 AM 55.4 °F - 42.8 °F 63% 30.29 in 8.0 mi Calm Calm - N/A   Clear
9:50 AM 59 °F - 47 °F 56% 29.94 in 6 mi Calm Calm - -   Haze
10:40 AM 64.4 °F - 42.8 °F 45% 30.29 in 8.0 mi Calm Calm - N/A   Clear
11:46 AM 71.6 °F - 33.8 °F 25% 30.28 in 10.0 mi East 4.6 mph - N/A   Clear
12:48 PM 75.2 °F - 32.0 °F 21% 30.24 in 10.0 mi WNW 3.5 mph - N/A   Clear
12:50 PM 72 °F - 33 °F 14% 29.87 in 12 mi SSE 2.2 mph - -  
1:47 PM 77.0 °F - 30.2 °F 18% 30.20 in 10.0 mi ENE 6.9 mph - N/A   Clear
2:40 PM 75.2 °F - 39.2 °F 27% 30.17 in 10.0 mi South 16.1 mph - N/A   Clear
3:40 PM 76 °F - 39 °F 16% 29.71 in 12 mi SE 2.2 mph - -   Scattered Clouds
3:48 PM 75.2 °F - 42.8 °F 31% 30.16 in 10.0 mi South 12.7 mph - N/A   Clear
4:48 PM 75.2 °F - 42.8 °F 31% 30.16 in 10.0 mi South 12.7 mph - N/A   Clear
5:49 PM 69.8 °F - 48.2 °F 46% 30.16 in 10.0 mi SSE 17.3 mph - N/A   Clear
6:40 PM 71 °F - 39 °F 21% 29.64 in 12 mi SSE 2.2 mph - -  
6:47 PM 64.4 °F - 48.2 °F 56% 30.18 in 10.0 mi SSW 8.1 mph - N/A   Clear
7:40 PM 59.0 °F - 48.2 °F 67% 30.20 in 10.0 mi South 4.6 mph - N/A   Clear
8:46 PM 59.0 °F - 46.4 °F 63% 30.24 in 10.0 mi West 3.5 mph - N/A   Clear
9:44 PM 55.4 °F - 48.2 °F 77% 30.26 in 10.0 mi NW 3.5 mph - N/A   Clear
9:45 PM 62 °F - 43 °F 39% 29.64 in 3 mi Calm Calm - -  
10:45 PM 55.4 °F - 48.2 °F 77% 30.26 in 10.0 mi NW 3.5 mph - N/A   Clear